STARLINK-31106, 58689

Orbit data source: Space-Track

STARLINK-31106, 58689 is a payload satellite owned by SpaceX/Seattle (US) in LEO that was launched on Fri, 29 Dec 2023 UTC via an FALCON 9 launch vehicle from the Air Force Eastern Test Range (AFETR). Payload-class satellites include a variety of spacecraft equipped with specific instruments for various scientific and technological missions. These include communications satellites like Starlink; space stations such as the ISS; scientific satellites like the Hubble; Earth observation satellites from companies like Planet Labs, Umbra, and HawkEye 360; GPS; miniature CubeSats for education and research; and military/defense satellites.

Loading next visibility...
Identifier
58689, 2023-211Y
Orbit
LEO
Country
Flag of USUS
Related business
Manufacturer
SpaceX/Seattle
Mission
Operational Commercial Communications
Bus & Motor
STARLINK V2M, Unknown motor
Mass
730 kg wet, ~700 kg dry
Launch date (UTC)
2023-12-29 (2 years ago)
Launch vehicle
FALCON 9
Launch site
Air Force Eastern Test Range (AFETR)
Object type
Payload
Rocket body
Debris
Shape & HBR
Box + 2 Pan, 17.7 m
Radar Cross Section
33.884 m², Large (>1 m²)

Expand to show TLE details & history
Last TLE update: 2 days ago

TLE from 2 days ago
0 STARLINK-31106
1 58689U 23211Y   26171.20952510  .00008765  00000-0  32752-3 0  9994
2 58689  43.0022 226.3062 0001563 269.2308  90.8365 15.27592832138147
Epoch: 2026-06-20T05:01Z
TLE epoch observation values (Epoch: 2026-06-20T05:01:42.968Z)
Latitude
Longitude
-117.55026°
Altitude
482.802 km
Speed
7.626 km/s
True Right ascension
15h 05m 13s
True Declination
0° 00' 00"
Sunlit
Object was in full shadow at epoch
Visualization orbit readout
Latitude
Unknown
Longitude
Unknown
Altitude
Unknown
Speed
Unknown
Apparent Right ascension
Unknown
Apparent Declination
Unknown
Sunlit
N/A
Visualization observer readout
Local Sidereal Time
21:28:21
Azimuth
Unknown
Elevation
Unknown
Doppler factor
Unknown
Orbital elements
Apogee altitude
486.028 km
Perigee altitude
483.883 km
Semi-major axis
6,863.092 km
Eccentricity
0.00016
Inclination
43.0022°
RAAN
226.3062°
Arg. of periapsis
269.2308°
True anomaly
90.85441°
Mean anomaly
90.8365°
Eccentric anomaly
90.84545°
Mean motion
3.81736 °/min
Orbital period
94.31 mins
BSTAR
0.00032752
Loading maneuver chart data...
Computing Atmospheric mass density...
Loading historical data...
Loading historical data...
Loading historical data...
Loading historical data...
Loading historical data...
Loading historical data...
Loading historical data...

Documentation

Showing up to 5 results
|